Weather History for Soldotna, AK

Change the Weather History Date:

Monday, January 30, 2012

  Actual Average Record
Temperature  
Mean Temperature 4 °F -  
Max Temperature 10 °F 23 °F 48 °F (2007)
Min Temperature -2 °F 5 °F -28 °F (1971)
Degree Days  
Heating Degree Days 61    
Moisture  
Dew Point 1 °F    
Average Humidity 85    
Maximum Humidity 100    
Minimum Humidity 39    
Precipitation  
Precipitation 0.00 in - - ()
Sea Level Pressure  
Sea Level Pressure 29.25 in    
Wind  
Wind Speed 4 mph (East)    
Max Wind Speed 9 mph    
Max Gust Speed -    
Visibility 5 miles    
Events      
Averages and records for this station are not official NWS values.
T = Trace of Precipitation, MM = Missing Value Source: NWS Daily Summary

Daily Weather History Graph

Daily Weather History Graph

Search for Another Location

Airport:

Trip Planner

Search our weather history database for the weather conditions in past years. The results will help you decide how hot, cold, wet, or windy it might be!

Date:

Astronomy

Jan. 30, 2012 Rise Set
Actual Time 9:25 AM AKST 5:09 PM AKST
Civil Twilight 8:36 AM AKST 5:58 PM AKST
Nautical Twilight 7:45 AM AKST 6:50 PM AKST
Astronomical Twilight 6:55 AM AKST 7:40 PM AKST
Moon 10:33 AM AKST (1/30) 2:19 AM AKST (1/30)
Length of Visible Light 9h 21m
Length of Day
7h 44m
Waxing Crescent, 47% of the Moon is Illuminated
Jan 30
Waxing Crescent
Jan 30
First Quarter
Feb 7
Full
Feb 14
Last Quarter
Feb 21
New

Hourly Weather History & Observations

Time (AKST) Temp. Windchill Dew Point Humidity Pressure Visibility Wind Dir Wind Speed Gust Speed Precip Events Conditions
12:16 AM -2.2 °F - -5.8 °F 85% 29.28 in 10.0 mi Calm Calm - N/A   Overcast
12:36 AM -2.2 °F -12.5 °F -13.0 °F 60% 29.27 in 10.0 mi East 4.6 mph - N/A   Mostly Cloudy
12:56 AM -0.4 °F -10.4 °F -5.8 °F 78% 29.27 in 10.0 mi ESE 4.6 mph - N/A   Mostly Cloudy
1:16 AM -0.4 °F -10.4 °F -4.0 °F 85% 29.27 in 10.0 mi East 4.6 mph - N/A   Overcast
1:36 AM -0.4 °F -12.0 °F -16.6 °F 46% 29.27 in 10.0 mi East 5.8 mph - N/A   Overcast
1:56 AM -0.4 °F -10.4 °F - N/A% 29.27 in 10.0 mi ESE 4.6 mph - N/A   Overcast
2:16 AM -0.4 °F -10.4 °F -20.2 °F 39% 29.27 in 10.0 mi East 4.6 mph - N/A   Unknown
2:36 AM -0.4 °F -12.0 °F -0.4 °F 100% 29.26 in 10.0 mi East 5.8 mph - N/A   Unknown
2:56 AM -0.4 °F - -2.2 °F 92% 29.27 in 10.0 mi Calm Calm - N/A   Unknown
3:16 AM -0.4 °F -12.0 °F -4.0 °F 85% 29.27 in 10.0 mi ESE 5.8 mph - N/A   Unknown
3:36 AM 1.4 °F -8.3 °F -2.2 °F 85% 29.27 in 10.0 mi East 4.6 mph - N/A   Unknown
3:56 AM 1.4 °F -6.2 °F -2.2 °F 85% 29.27 in 10.0 mi East 3.5 mph - N/A   Unknown
4:16 AM 1.4 °F -8.3 °F -2.2 °F 85% 29.27 in 10.0 mi East 4.6 mph - N/A   Unknown
4:36 AM 1.4 °F -8.3 °F -2.2 °F 85% 29.27 in 10.0 mi East 4.6 mph - N/A   Unknown
4:56 AM 1.4 °F -8.3 °F -2.2 °F 85% 29.26 in 7.0 mi ESE 4.6 mph - N/A   Unknown
5:16 AM 1.4 °F -8.3 °F -0.4 °F 92% 29.26 in 4.0 mi East 4.6 mph - N/A   Unknown
5:36 AM 1.4 °F -6.2 °F -2.2 °F 85% 29.26 in 3.0 mi ESE 3.5 mph - N/A   Unknown
5:56 AM 1.4 °F -6.2 °F -0.4 °F 92% 29.26 in 3.0 mi East 3.5 mph - N/A   Unknown
6:16 AM 1.4 °F -6.2 °F -0.4 °F 92% 29.26 in 3.0 mi East 3.5 mph - N/A   Unknown
6:36 AM 1.4 °F - -0.4 °F 92% 29.25 in 2.0 mi Calm Calm - N/A   Unknown
6:56 AM 1.4 °F - -0.4 °F 92% 29.25 in 2.5 mi Calm Calm - N/A   Unknown
7:16 AM 1.4 °F -6.2 °F -0.4 °F 92% 29.25 in 3.0 mi ESE 3.5 mph - N/A   Unknown
7:36 AM 1.4 °F -6.2 °F -0.4 °F 92% 29.25 in 3.0 mi ESE 3.5 mph - N/A   Unknown
7:56 AM 1.4 °F -6.2 °F -0.4 °F 92% 29.25 in 4.0 mi ESE 3.5 mph - N/A   Unknown
8:16 AM 1.4 °F -6.2 °F -0.4 °F 92% 29.24 in 4.0 mi East 3.5 mph - N/A   Unknown
8:36 AM 1.4 °F -6.2 °F -0.4 °F 92% 29.25 in 5.0 mi East 3.5 mph - N/A   Unknown
8:56 AM 3.2 °F - 1.4 °F 92% 29.25 in 2.0 mi Calm Calm - N/A   Unknown
9:16 AM 3.2 °F - 1.4 °F 92% 29.25 in 1.5 mi Calm Calm - N/A   Unknown
9:36 AM 3.2 °F -4.2 °F 1.4 °F 92% 29.25 in 1.0 mi East 3.5 mph - N/A   Unknown
9:56 AM 3.2 °F -4.2 °F 1.4 °F 92% 29.25 in 1.2 mi East 3.5 mph - N/A   Unknown
10:16 AM 6.8 °F -4.8 °F 5.0 °F 92% 29.25 in 1.8 mi ENE 6.9 mph - N/A   Unknown
10:36 AM 6.8 °F -4.8 °F 3.2 °F 85% 29.25 in 3.0 mi ENE 6.9 mph - N/A   Overcast
10:56 AM 6.8 °F -3.5 °F 1.4 °F 79% 29.25 in 4.0 mi NE 5.8 mph - N/A   Overcast
11:16 AM 6.8 °F -3.5 °F 3.2 °F 85% 29.25 in 3.0 mi NE 5.8 mph - N/A   Unknown
11:36 AM 6.8 °F -0.1 °F 1.4 °F 79% 29.25 in 3.0 mi NE 3.5 mph - N/A   Unknown
11:56 AM 6.8 °F -3.5 °F 5.0 °F 92% 29.25 in 3.0 mi NE 5.8 mph - N/A   Unknown
12:16 PM 6.8 °F -4.8 °F 3.2 °F 85% 29.25 in 4.0 mi NE 6.9 mph - N/A   Unknown
12:36 PM 6.8 °F -4.8 °F 3.2 °F 85% 29.25 in 4.0 mi NE 6.9 mph - N/A   Overcast
12:56 PM 8.6 °F -4.7 °F 3.2 °F 79% 29.24 in 4.0 mi ENE 9.2 mph - N/A   Overcast
1:16 PM 8.6 °F -3.7 °F 3.2 °F 79% 29.24 in 4.0 mi NE 8.1 mph - N/A   Unknown
1:36 PM 8.6 °F -2.6 °F 5.0 °F 85% 29.23 in 5.0 mi NE 6.9 mph - N/A   Unknown
2:16 PM 8.6 °F -2.6 °F 3.2 °F 79% 29.23 in 4.0 mi ENE 6.9 mph - N/A   Unknown
2:36 PM 8.6 °F -2.6 °F 5.0 °F 85% 29.22 in 4.0 mi ENE 6.9 mph - N/A   Unknown
2:56 PM 8.6 °F -1.3 °F 6.8 °F 92% 29.22 in 4.0 mi ENE 5.8 mph - N/A   Unknown
3:16 PM 8.6 °F 0.1 °F 6.8 °F 92% 29.21 in 10.0 mi ENE 4.6 mph - N/A   Unknown
3:36 PM 8.6 °F 2.0 °F 5.0 °F 85% 29.21 in 5.0 mi East 3.5 mph - N/A   Unknown
3:56 PM 10.4 °F 0.8 °F 6.8 °F 85% 29.21 in 4.0 mi NE 5.8 mph - N/A   Unknown
4:16 PM 10.4 °F 2.2 °F 6.8 °F 85% 29.21 in 3.0 mi ENE 4.6 mph - N/A   Unknown
4:36 PM 10.4 °F 2.2 °F 6.8 °F 85% 29.21 in 3.0 mi NE 4.6 mph - N/A   Unknown
4:56 PM 10.4 °F - 6.8 °F 85% 29.21 in 2.0 mi Calm Calm - N/A   Unknown
5:16 PM 10.4 °F - 8.6 °F 92% 29.21 in 2.5 mi Calm Calm - N/A   Unknown
5:36 PM 10.4 °F - 6.8 °F 85% 29.21 in 2.5 mi Calm Calm - N/A   Unknown
5:56 PM 10.4 °F 4.0 °F 6.8 °F 85% 29.21 in 3.0 mi NNE 3.5 mph - N/A   Unknown
6:16 PM 10.4 °F - 6.8 °F 85% 29.21 in 3.0 mi Calm Calm - N/A   Unknown
6:36 PM 10.4 °F 4.0 °F 8.6 °F 92% 29.21 in 2.5 mi NE 3.5 mph - N/A   Unknown
6:56 PM 10.4 °F - 8.6 °F 92% 29.20 in 5.0 mi Calm Calm - N/A   Unknown
7:16 PM 10.4 °F - 8.6 °F 92% 29.21 in 6.0 mi Calm Calm - N/A   Unknown
7:36 PM 10.4 °F - 6.8 °F 85% 29.21 in 5.0 mi Calm Calm - N/A   Unknown
7:56 PM 10.4 °F - 8.6 °F 92% 29.21 in 3.0 mi Calm Calm - N/A   Unknown
8:16 PM 10.4 °F - 8.6 °F 92% 29.21 in 4.0 mi Calm Calm - N/A   Unknown
8:36 PM 10.4 °F - 8.6 °F 92% 29.21 in 5.0 mi Calm Calm - N/A   Unknown
8:56 PM 10.4 °F - 8.6 °F 92% 29.22 in - Calm Calm - N/A   Unknown
9:16 PM 10.4 °F - 8.6 °F 92% 29.21 in 10.0 mi Calm Calm - N/A   Unknown
9:36 PM 10.4 °F - 6.8 °F 85% 29.22 in 10.0 mi Calm Calm - N/A   Unknown
9:56 PM 10.4 °F 4.0 °F 6.8 °F 85% 29.21 in 10.0 mi East 3.5 mph - N/A   Unknown
10:16 PM 10.4 °F 2.2 °F 8.6 °F 92% 29.21 in 10.0 mi East 4.6 mph - N/A   Unknown
10:36 PM 10.4 °F - 8.6 °F 92% 29.22 in 10.0 mi Calm Calm - N/A   Unknown
10:56 PM 10.4 °F - 8.6 °F 92% 29.22 in 9.0 mi Calm Calm - N/A   Unknown
11:16 PM 10.4 °F 4.0 °F 8.6 °F 92% 29.22 in - East 3.5 mph - N/A   Unknown
11:36 PM 10.4 °F - 8.6 °F 92% 29.22 in 10.0 mi Calm Calm - N/A   Unknown
11:56 PM 10.4 °F - 8.6 °F 92% 29.22 in 10.0 mi Calm Calm - N/A   Unknown